Home   Weather   Jequié   Past weeks

Flag for Brazil Past Weather in Jequié, Bahia, Brazil — Yesterday and Last 2 Weeks

Now
77 °F

Partly cloudy.


Feels Like: 78 °F
Forecast: 70 / 91 °F
Wind: 5 mph from North

Location: Salvador Aeroporto

Current Time: Dec 3, 2016 at 4:13:27 am

Latest Report: Dec 3, 2016 at 3:00 am


Visibility: N/A

Pressure: 29.89 "Hg

Humidity: 89%

Dew Point: 73 °F

Location of JequiéLocation

Past Weather in Jequié — Graph

°F

Jequié Temperature Yesterday

Maximum temperature yesterday: 84 °F (at 12:00 pm)
Minimum temperature yesterday: 73 °F (at 12:00 am)
Average temperature yesterday: 79 °F

High & Low Weather Summary for the Past Weeks

 TemperatureHumidityPressure
High86 °F (Nov 18, 11:00 am)100% (Nov 20, 7:00 am)30.01 "Hg (Nov 20, 7:00 am)
Low39 °F (Nov 21, 1:00 am)58% (Nov 26, 11:00 am)29.65 "Hg (Nov 25, 12:00 am)
Average79 °F76%29.92 "Hg
* Reported Nov 18 2:00 am — Dec 3 2:00 am, Jequié, Weather by CustomWeather, © 2016

Note: Actual official high and low records may vary slightly from our data, if they occured in-between our weather recording intervals... More about our weather records

Advertising

Jequié Weather History for the Previous 24 Hours

Scroll right to see more
 ConditionsComfort  
Time TempWeatherWind HumidityBarometerVisibility
2:00 am
Sat, Dec 3
77 °FPassing clouds.9 mph89%29.89 "HgN/A
1:00 am77 °FPartly cloudy.6 mph89%29.92 "HgN/A
12:00 am79 °FPassing clouds.5 mph84%29.92 "HgN/A
11:00 pm
Fri, Dec 2
79 °FPassing clouds.8 mph84%29.95 "HgN/A
10:00 pm79 °FPassing clouds.8 mph84%29.98 "HgN/A
9:00 pm79 °FClear.6 mph79%29.98 "Hg10 mi
8:00 pm79 °FPassing clouds.8 mph79%29.98 "HgN/A
7:00 pm81 °FPassing clouds.8 mph74%29.95 "HgN/A
6:00 pm79 °FPassing clouds.7 mph84%29.95 "HgN/A
5:00 pm79 °FPartly sunny.7 mph79%29.95 "HgN/A
4:00 pm81 °FScattered clouds.7 mph74%29.95 "HgN/A
3:00 pm81 °FScattered clouds.8 mph74%29.95 "HgN/A
2:00 pm82 °FScattered clouds.10 mph74%29.98 "HgN/A
1:00 pm82 °FScattered clouds.8 mph70%29.98 "HgN/A
12:00 pm84 °FScattered clouds.8 mph66%29.98 "HgN/A
11:00 am82 °FPartly sunny.12 mph74%30.01 "HgN/A
10:00 am82 °FScattered showers. Broken clouds.8 mph74%N/AN/A
9:00 am82 °FPartly sunny.9 mph74%30.01 "HgN/A
8:00 am81 °FScattered showers. Partly sunny.10 mph79%N/AN/A
7:00 am79 °FBroken clouds.No wind84%29.98 "HgN/A
5:00 am75 °FScattered showers. Partly sunny.No wind94%29.95 "HgN/A
4:00 am75 °FPassing clouds.No wind89%29.95 "HgN/A
Weather by CustomWeather, © 2016

See weather overviewHow to use our weather pages